Weather in Kozikovo

Russia / Mari El Republic     56°42′58″N   45°55′35″E
temp.,
°C
wind,
m/s
gust,
m/s
humid.,
%
clouds,
%
prec.,
mm/h
press.,
hPa
HPBL,
m
3 march, wed
wed300:00−2wnw4109398 0.2 1000624
03:00−4nw5119299 0.6 1001658
06:00−6nw51293100 0.1 1002676
09:00−6nw51091100 0.3 1005633
12:00−5nw5890100 0.1 1006668
15:00−4wnw5889100 0.3 1006850
18:00−5wnw4987100 0.1 1006731
21:00−8wsw3109585 0.1 1005282
4 march, thu
thu400:00−4wsw51294100 0.4 1001670
03:00−3wsw41095100 0.6 999626
06:00−3sw5129499 0.3 996769
09:00−2sw5109699 0.7 993661
12:000w31099100 2.9 990834
15:00−1w7138281 3.2 9911385
18:00−3w51289100 0.1 994739
21:00−6wnw399397 0.3 998286
5 march, fri
fri500:00−10wnw239570 0.0 99953
03:00−13nnw239675 0.0 100134
06:00−15n22930 0.0 100220
09:00−11nnw12900 0.0 1004154
12:00−6wnw12850 0.0 1005458
15:00−5w258533 0.0 1006766
18:00−7wsw2494100 0.1 1007114
21:00−12wsw239681 0.1 100942
6 march, sat
sat600:00−12wsw229768 0.0 100932
03:00−11wsw129777 0.1 101022
06:00−12wnw229787 0.1 101021
09:00−12nw359593 0.2 1011267
12:00−10nw3588100 0.0 1012670
15:00−11nw3585100 0.1 1011875
18:00−15wnw2393100 0.1 101161
21:00−17w239798 0.1 101256
7 march, sun
sun700:00−19w239977 0.0 101234
03:00−20wsw2210077 0.1 101121
06:00−21ssw2310066 0.0 100841
09:00−15s479781 0.0 1006259
12:00−10s61193100 0.1 1002656
15:00−8s61193100 0.9 998968
18:00−7s51195100 0.9 994809
21:00−6s41195100 2.1 991691